MOVE-II (43780 NORAD) Tracking and Keplerian Element Data

This shows tracking and keplerian element data for the satellite.

Feedback or suggestion? Click here.




ElementValue
Catalog43780
NameMOVE-II
Epoch Orbit21644
Epoch Day324.62154522
Epoch Year2022
RAAN28.4067
Inclination97.61
Eccentricity0.0013472
Argument of Perigee101.8478
Mean Anonmoly258.4256
Mean Motion14.99202997
Decay Rate3.65E-05
L11 43780U 18099Y 22324.62154522 .00003650 00000+0 30389-3 0 9998
L22 43780 97.6100 28.4067 0013472 101.8478 258.4256 14.99202997216441



Live tracking and technical data element details for MOVE-II (NORAD 43780). MOVE-II can be tracked NOW for your location showing map with azimuth and elevation plus other details from your city location.







IsCatalogInMostPopularTable: catalog: 43780, numindb: 373
Update: records affected: 1



GetName: 43780 MOVE-II

Hit Count: updated at: Mon, 28 Nov 2022 06:04:02 GMT